This demonstration page uses our WeatherBlox Daily Observations layout. Learn more.

Left ArrowRight Arrow

39.01783, -85.05884

Hourly Observations for February 10, 2021

Temp ( °F °C ) Dew Point ( °F °C ) Humidity (%) Winds ( mph kmh ) Pressure ( in mb ) Visibility ( mi km ) Precip ( " mm )
12:52 am 00:52 Cloudy with Haze 23 -5 16 -8.9 74 74 N 10 17 30.35 1028 5 8 0.00 0.00
1:52 am 01:52 Cloudy with Haze 23 -5 16 -8.9 74 74 NE 8 13 30.33 1027 5 8 0.00 0.00
2:52 am 02:52 Cloudy with Haze 23 -5 16 -8.9 74 74 NNE 9 15 30.32 1027 5 8 0.00 0.00
3:52 am 03:52 Cloudy with Haze 23 -5 16 -8.9 74 74 NE 14 22 30.32 1027 6 10 0.00 0.00
4:52 am 04:52 Cloudy 22 -5.6 15 -9.4 75 75 NE 14 22 30.32 1027 8 13 0.00 0.00
5:52 am 05:52 Cloudy with Haze 22 -5.6 14 -10 71 71 NE 12 19 30.33 1027 6 10 0.00 0.00
6:52 am 06:52 Cloudy 21 -6.1 13 -10.6 71 71 ENE 14 22 30.33 1027 10 16 0.00 0.00
7:52 am 07:52 Cloudy 21 -6.1 12 -11.1 68 68 NE 14 22 30.32 1027 8 13 0.00 0.00
8:36 am 08:36 Cloudy with Light Snow 20 -6.7 11 -11.7 68 68 ENE 15 24 30.37 1029 5 8 0.00 0.00
8:52 am 08:52 Cloudy with Light Snow 20 -6.7 12 -11.1 71 71 ENE 14 22 30.34 1027 5 8 0.00 0.00
8:56 am 08:56 Cloudy with Light Snow 20 -6.7 12 -11.1 71 71 ENE 15 24 30.38 1029 5 8 0.00 0.00
9:28 am 09:28 Cloudy with Light Snow 20 -6.7 12 -11.1 71 71 ENE 10 17 30.38 1029 3 4 0.01 0.25
9:52 am 09:52 Cloudy with Light Snow 20 -6.7 13 -10.6 74 74 ENE 13 20 30.32 1027 4 6 0.01 0.25
10:35 am 10:35 Cloudy 20 -6.7 13 -10.6 74 74 ENE 14 22 30.34 1027 7 11 0.00 0.00
10:52 am 10:52 Cloudy 20 -6.7 14 -10 78 78 NE 13 20 30.30 1026 7 11 0.00 0.00
11:52 am 11:52 Cloudy with Light Snow 21 -6.1 15 -9.4 78 78 NNE 12 19 30.28 1026 4 6 0.00 0.00
12:18 pm 12:18 Cloudy with Light Snow 21 -6.1 16 -8.9 81 81 NE 10 17 30.31 1026 3 5 0.01 0.25
12:52 pm 12:52 Cloudy with Light Snow 21 -6.1 17 -8.3 85 85 NE 12 19 30.24 1024 2 3 0.01 0.25
1:12 pm 13:12 Cloudy with Light Snow 22 -5.6 17 -8.3 82 82 ENE 12 19 30.26 1025 2 3 0.01 0.25
1:22 pm 13:22 Cloudy with Light Snow 22 -5.6 18 -7.8 85 85 NNE 10 17 30.27 1025 2 3 0.01 0.25
1:52 pm 13:52 Cloudy with Light Snow 22 -5.6 18 -7.8 85 85 NE 9 15 30.20 1023 2 3 0.01 0.25
2:45 pm 14:45 Cloudy with Light Freezing Drizzle 22 -5.6 19 -7.2 89 89 NE 10 17 30.22 1023 2 3 0.00 0.00
2:52 pm 14:52 Cloudy with Light Freezing Drizzle 22 -5.6 19 -7.2 89 89 NNE 12 19 30.18 1022 2 3 0.00 0.00
3:05 pm 15:05 Cloudy with Mist and Fog 22 -5.6 18 -7.8 85 85 N 12 19 30.24 1024 2 2 0.00 0.00
3:13 pm 15:13 Cloudy with Light Snow 22 -5.6 19 -7.2 89 89 NNE 9 15 30.23 1024 1 1 0.01 0.25
3:19 pm 15:19 Mostly Cloudy with Snow 22 -5.6 19 -7.2 89 89 NNE 10 17 30.23 1024 1 1 0.02 0.51
3:36 pm 15:36 Mostly Cloudy with Heavy Snow 22 -5.6 19 -7.2 89 89 NNE 10 17 30.22 1023 0 0 0.05 1.27
3:52 pm 15:52 Mostly Cloudy with Heavy Snow 22 -5.6 18 -7.8 85 85 NE 12 19 30.16 1021 0 0 0.08 2.03
4:35 pm 16:35 Cloudy with Light Snow 22 -5.6 18 -7.8 85 85 NNE 13 20 30.21 1023 1 1 0.10 2.54
4:52 pm 16:52 Cloudy with Light Snow 22 -5.6 18 -7.8 85 85 NNE 15 24 30.16 1021 1 1 0.12 3.05
6:52 pm 18:52 Cloudy with Light Snow 22 -5.6 19 -7.2 89 89 NNE 12 19 30.19 1022 1 1 0.01 0.25
7:07 pm 19:07 Cloudy with Light Snow 22 -5.6 19 -7.2 89 89 N 10 17 30.24 1024 2 2 0.00 0.00
7:52 pm 19:52 Cloudy with Light Snow 22 -5.6 18 -7.8 85 85 NNE 12 19 30.21 1023 2 2 0.01 0.25
8:33 pm 20:33 Cloudy with Light Snow 22 -5.6 17 -8.3 82 82 NNE 10 17 30.25 1024 4 6 0.00 0.00
8:48 pm 20:48 Cloudy with Mist and Fog 21 -6 18 -8 86 86 NNE 12 19 30.25 1024 5 8 0.00 0.00
8:52 pm 20:52 Cloudy with Mist and Fog 22 -5.6 17 -8.3 82 82 NNE 14 22 30.21 1023 5 8 0.00 0.00
9:17 pm 21:17 Cloudy with Light Snow 22 -5.6 17 -8.3 82 82 NNE 13 20 30.25 1024 5 8 0.00 0.00
9:45 pm 21:45 Cloudy with Light Snow 22 -5.6 17 -8.3 82 82 N 12 19 30.26 1025 6 10 0.00 0.00
9:52 pm 21:52 Cloudy with Light Snow 22 -5.6 17 -8.3 82 82 NNE 13 20 30.22 1023 6 10 0.00 0.00
10:52 pm 22:52 Cloudy with Haze 22 -5.6 17 -8.3 82 82 NNE 13 20 30.22 1023 6 10 0.00 0.00
11:29 pm 23:29 Cloudy with Haze 22 -5.6 17 -8.3 82 82 NNE 14 22 30.27 1025 2 3 0.00 0.00
11:36 pm 23:36 Cloudy with Haze 22 -5.6 17 -8.3 82 82 NNE 12 19 30.26 1025 6 10 0.00 0.00
11:52 pm 23:52 Cloudy with Mist and Fog 21 -6.1 16 -8.9 81 81 N 13 20 30.22 1023 6 10 0.00 0.00

Powered by AerisWeather